Wind_Speed
22 21 20 19 18 19 21 21 19 17 17 18 16 15 15 16 17 15 14 15 15 15 15 15 14 14 14 14 14 14 14 14 14 14 13 12 11 11 11 11 12 11 10 10
23 22 20 21 21 21 22 22 20 19 19 19 18 17 16 16 17 17 16 16 15 16 16 16 15 15 16 16 15 15 15 15 15 14 13 12 11 11 11 11 11 11 10 10
23 21 22 22 23 23 22 21 21 19 18 18 18 18 17 16 18 18 17 16 16 16 16 16 16 16 16 16 16 15 16 15 15 13 12 11 11 11 11 10 10 10 10 10
24 24 25 25 25 25 23 21 21 19 19 19 19 19 18 18 19 19 18 16 16 17 17 16 16 16 16 16 16 16 16 15 14 13 11 11 10 10 10 9 9 10 10 10
23 23 25 25 24 25 22 20 21 19 20 21 20 21 20 19 18 19 17 17 17 17 16 15 15 15 16 16 16 16 16 15 14 12 11 10 9 9 8 9 9 9 9 10
23 24 25 25 24 24 23 22 22 22 22 23 20 22 21 18 18 18 17 16 17 16 16 15 15 15 16 16 16 16 15 14 13 11 10 10 9 8 8 8 8 8 9 10
25 26 26 25 26 25 25 24 24 24 24 22 20 23 21 18 18 17 16 17 17 16 15 15 15 16 16 16 16 15 15 14 13 11 10 10 9 8 7 7 7 8 9 9
26 26 26 26 26 25 25 26 26 25 23 21 21 23 21 19 18 17 16 17 17 17 15 15 15 16 16 16 16 15 15 15 14 12 11 10 9 8 7 7 8 8 8 8
26 25 26 27 26 26 26 26 25 24 23 23 22 21 18 18 17 16 16 16 16 15 14 14 15 15 16 15 15 16 15 15 14 13 12 10 10 8 8 7 7 7 7 7
25 25 25 26 27 27 27 25 25 27 25 24 22 20 19 18 18 16 15 14 14 14 15 15 14 14 15 15 15 15 15 14 11 11 11 10 10 8 8 7 7 7 6 6
25 25 24 26 28 27 27 26 27 27 26 25 23 21 20 19 18 17 15 15 14 14 15 16 15 15 14 14 13 13 13 13 11 10 10 9 9 9 9 8 8 8 7 6
25 25 25 26 27 28 28 27 27 27 27 25 24 22 21 20 18 17 16 16 15 15 15 15 15 15 14 14 14 13 13 12 12 11 11 10 10 10 10 9 9 9 8 8
25 26 26 27 27 28 29 28 28 27 26 25 25 24 23 22 20 19 17 17 17 16 16 15 16 16 15 15 15 15 14 13 13 11 11 11 11 11 11 10 9 9 9 9
28 27 27 27 27 28 29 29 28 28 28 27 26 25 25 23 21 20 19 19 19 17 17 16 15 15 16 16 16 15 15 14 13 11 11 11 11 12 11 10 10 10 10 10
29 28 28 27 27 28 29 29 29 28 28 27 27 26 25 25 23 21 21 21 21 19 19 17 16 16 17 17 17 16 14 14 13 12 12 12 12 12 12 11 11 10 11 11
30 30 29 29 28 28 29 30 29 28 28 27 27 25 25 24 24 23 22 22 20 20 19 18 18 18 18 17 16 16 14 14 13 12 12 12 12 12 12 13 12 12 11 11
31 31 30 29 28 30 30 28 29 28 27 27 27 27 26 26 25 24 24 23 21 20 20 20 21 20 19 17 16 16 15 14 14 14 14 13 13 13 13 13 14 14 13 12
31 31 29 28 29 30 28 28 28 28 28 26 25 26 27 25 24 24 25 23 22 22 22 21 21 20 19 18 17 16 15 15 15 15 15 15 15 15 15 15 15 15 15 15
31 31 30 28 29 27 26 28 27 28 27 26 25 25 26 26 25 25 25 25 24 24 23 22 22 21 20 19 17 17 17 16 16 16 15 16 16 17 17 17 17 17 16 16
31 31 30 29 30 29 26 26 27 28 28 26 25 24 24 25 26 25 24 25 25 24 22 22 21 20 20 20 18 18 18 17 17 17 17 17 17 18 18 18 18 18 18 17
31 30 30 30 30 30 27 26 26 27 27 25 25 24 24 24 24 24 23 21 21 21 22 22 22 21 20 19 18 18 18 18 18 18 18 18 18 18 19 19 19 19 19 19
29 29 28 29 29 28 27 26 26 26 24 24 25 25 25 25 24 23 22 22 22 22 22 22 22 21 21 19 19 19 19 19 19 18 18 19 18 18 19 19 19 20 20 20
28 28 27 27 28 27 27 26 25 25 24 24 24 25 26 25 23 23 23 24 24 24 22 21 20 20 20 19 19 19 19 19 19 19 19 18 19 19 19 19 19 19 19 20
26 26 26 26 26 27 26 26 24 24 25 24 23 23 24 25 25 24 24 24 23 23 24 22 21 20 20 20 20 20 21 20 20 19 19 19 18 18 18 19 19 19 19 19
24 25 24 24 26 26 25 24 25 25 25 25 24 24 24 25 25 25 24 23 24 24 23 22 22 22 21 21 21 21 21 21 21 20 20 20 19 18 19 19 20 20 20 20
22 24 25 25 25 24 24 25 26 26 25 24 24 24 24 23 23 23 23 22 23 24 23 23 23 23 23 22 22 22 21 21 21 21 20 21 21 20 20 20 21 21 21 21
Wind_Direction
234 232 232 233 233 231 230 232 232 233 240 248 252 258 261 259 263 265 273 280 288 291 296 297 300 301 303 305 308 309 308 308 308 304 295 292 291 290 290 288 280 276 279 281
233 232 230 229 229 230 231 234 233 237 244 249 254 258 259 258 261 265 272 281 286 290 292 294 295 296 300 303 304 305 304 305 305 303 297 290 287 286 289 287 282 277 279 282
234 231 229 229 228 229 231 233 235 239 241 249 258 260 257 261 263 264 271 278 283 288 288 290 292 294 296 298 300 303 303 303 302 301 296 291 292 290 288 285 281 278 279 283
232 228 228 229 230 231 232 232 236 239 241 248 253 261 257 261 268 269 269 276 282 285 285 286 289 292 294 295 296 299 299 300 299 296 294 290 292 292 288 282 279 277 277 279
231 229 229 230 230 233 232 231 234 235 239 246 250 258 262 266 269 271 269 275 279 278 282 286 288 292 293 294 295 295 295 296 296 292 291 288 287 287 284 279 276 275 276 279
230 230 230 229 227 231 229 228 230 233 238 244 247 257 263 264 267 268 269 274 276 275 276 280 288 291 292 295 295 294 292 291 289 286 284 284 284 281 284 284 278 278 281 284
229 228 228 227 227 227 227 227 229 232 237 243 248 256 263 265 264 265 270 271 274 275 275 281 286 290 291 295 294 291 290 288 287 281 277 276 276 276 277 283 281 280 283 283
230 228 227 227 228 227 226 228 230 234 238 241 245 254 260 260 261 260 266 272 271 274 274 281 287 289 291 295 292 290 289 287 285 281 276 268 267 273 279 284 284 279 284 284
232 229 227 228 227 227 225 227 231 236 239 244 246 252 254 255 258 257 263 271 270 272 273 277 281 288 293 295 294 290 288 286 283 275 273 263 261 270 275 281 284 279 276 283
234 231 226 225 224 226 227 227 229 234 239 242 245 249 251 254 258 264 266 272 272 272 279 279 278 283 288 292 293 294 287 281 280 271 266 264 257 262 265 272 278 281 278 285
233 231 222 221 222 223 224 224 230 235 239 243 245 246 251 256 260 266 268 270 272 275 282 284 283 286 289 292 293 294 291 288 280 274 268 269 265 266 268 271 273 277 278 284
231 230 223 221 224 225 228 229 230 234 238 243 246 249 252 257 258 262 268 272 271 269 275 281 280 288 290 291 295 294 291 290 286 276 267 264 263 263 266 268 271 275 277 279
227 227 227 223 222 225 225 226 229 233 237 241 246 251 250 252 254 262 266 267 271 267 270 276 281 285 288 290 293 293 289 288 287 278 265 261 261 262 264 267 268 272 275 274
227 229 230 227 225 226 226 225 228 232 236 240 243 248 250 251 256 260 264 266 268 268 271 276 282 285 287 289 292 291 287 286 280 271 265 261 261 261 264 263 267 271 273 272
226 230 230 228 225 226 227 228 230 234 237 240 241 246 251 252 253 259 266 265 266 268 271 274 279 282 287 288 289 287 287 284 275 265 260 260 261 263 263 265 268 269 272 270
226 229 231 230 228 227 229 228 229 233 236 240 243 245 249 253 255 260 266 268 267 269 269 273 278 284 287 287 287 285 280 276 271 263 259 259 260 262 264 265 267 270 272 271
227 230 230 228 229 229 230 229 230 232 235 241 245 247 250 254 260 261 262 267 271 271 271 273 274 278 280 281 282 282 276 270 266 262 259 260 260 261 265 267 269 270 271 270
227 229 229 228 229 230 230 230 231 233 240 244 249 249 252 257 257 260 260 262 267 268 269 271 273 275 275 276 276 275 273 270 268 264 260 260 261 263 263 265 266 268 268 267
227 229 230 229 230 233 233 232 235 238 241 245 250 251 253 256 256 258 257 259 264 267 269 269 269 271 272 272 270 271 272 269 267 265 263 261 261 262 261 262 263 263 263 266
227 230 231 231 232 235 237 239 241 243 243 244 251 253 254 256 256 256 258 260 262 263 266 269 271 270 268 265 265 267 267 268 269 268 266 264 262 262 262 260 261 261 262 265
226 228 230 231 234 237 238 239 240 242 243 244 248 251 255 256 256 258 258 258 261 264 266 267 269 269 266 262 264 265 265 266 269 269 267 265 263 261 261 260 260 261 262 264
224 227 230 232 236 237 236 238 240 242 242 245 247 251 256 258 258 259 260 260 261 263 264 264 263 265 263 261 261 261 261 263 264 265 265 266 264 261 261 262 262 261 262 262
226 228 230 234 236 236 237 238 241 242 245 247 248 251 256 259 261 263 263 263 262 261 263 261 260 261 259 259 260 260 260 260 261 261 263 265 262 262 263 262 262 261 262 262
226 228 230 235 236 238 240 240 241 244 247 249 249 250 255 259 262 262 263 261 261 261 261 261 260 261 260 261 263 263 261 260 259 259 261 262 262 261 262 263 264 264 263 264
226 229 232 236 239 240 242 243 243 246 247 247 248 251 255 257 260 261 261 261 260 260 261 261 261 261 262 264 263 263 259 257 257 258 260 261 260 260 261 264 265 265 265 264
228 232 234 236 238 242 243 245 243 244 246 247 249 249 250 254 259 259 261 261 260 259 261 262 263 262 263 264 262 260 257 256 257 258 260 261 260 260 262 263 264 264 264 264
Height
5848 5851 5853 5857 5859 5860 5861 5863 5865 5866 5867 5867 5868 5870 5870 5870 5871 5872 5872 5872 5872 5872 5871 5871 5870 5869 5868 5866 5864 5863 5861 5859 5858 5855 5853 5852 5852 5851 5850 5849 5848 5848 5848 5848
5843 5846 5850 5851 5853 5855 5856 5859 5861 5863 5863 5864 5864 5865 5865 5866 5867 5868 5868 5868 5869 5869 5868 5867 5867 5866 5865 5863 5861 5860 5858 5856 5854 5852 5850 5849 5849 5848 5847 5846 5845 5845 5845 5844
5838 5843 5844 5845 5848 5850 5852 5855 5857 5859 5859 5859 5860 5861 5862 5863 5863 5864 5864 5864 5865 5864 5864 5863 5863 5862 5861 5859 5858 5856 5854 5852 5851 5849 5847 5846 5845 5844 5843 5843 5842 5842 5842 5841
5832 5836 5838 5840 5843 5845 5848 5851 5852 5853 5854 5855 5856 5856 5858 5858 5859 5859 5859 5860 5860 5859 5859 5859 5859 5858 5857 5856 5854 5852 5851 5849 5847 5845 5844 5843 5842 5841 5841 5840 5840 5839 5839 5838
5827 5830 5832 5835 5839 5841 5844 5847 5848 5849 5849 5850 5851 5851 5853 5854 5855 5855 5855 5856 5855 5855 5855 5855 5855 5854 5853 5852 5850 5848 5847 5845 5843 5842 5841 5840 5839 5839 5838 5838 5837 5836 5836 5835
5822 5824 5826 5830 5833 5836 5839 5841 5842 5843 5844 5845 5847 5847 5848 5849 5850 5851 5851 5851 5851 5851 5851 5851 5851 5850 5849 5847 5846 5845 5843 5841 5839 5838 5837 5837 5836 5836 5836 5835 5834 5834 5833 5832
5815 5817 5821 5824 5826 5830 5832 5835 5836 5838 5839 5840 5843 5842 5844 5846 5846 5846 5846 5847 5847 5847 5848 5847 5847 5846 5844 5843 5842 5841 5839 5838 5836 5835 5834 5834 5834 5833 5833 5833 5832 5832 5831 5830
5808 5811 5815 5817 5821 5824 5826 5829 5831 5833 5835 5837 5838 5837 5840 5841 5841 5842 5843 5843 5843 5843 5843 5842 5842 5842 5840 5839 5838 5837 5836 5835 5833 5832 5831 5831 5831 5831 5831 5830 5830 5829 5828 5827
5802 5806 5809 5812 5815 5818 5820 5823 5826 5828 5830 5831 5832 5834 5835 5835 5836 5838 5839 5839 5838 5838 5838 5838 5838 5838 5836 5835 5835 5833 5832 5830 5829 5828 5828 5827 5828 5828 5828 5828 5827 5827 5826 5825
5796 5800 5803 5806 5809 5812 5815 5818 5820 5822 5824 5825 5827 5829 5831 5831 5832 5833 5834 5834 5835 5835 5835 5834 5833 5833 5832 5831 5831 5829 5827 5825 5824 5823 5824 5824 5824 5825 5825 5825 5825 5825 5824 5823
5789 5793 5797 5800 5802 5806 5809 5812 5813 5816 5818 5820 5822 5826 5826 5827 5828 5829 5830 5831 5831 5831 5831 5830 5829 5829 5828 5827 5826 5825 5823 5821 5821 5821 5821 5821 5822 5822 5823 5822 5823 5822 5822 5821
5783 5786 5790 5794 5798 5800 5803 5805 5808 5810 5813 5815 5817 5822 5821 5822 5823 5824 5825 5826 5827 5827 5827 5826 5826 5825 5824 5823 5822 5821 5821 5819 5819 5818 5819 5819 5819 5820 5820 5820 5820 5820 5820 5819
5776 5779 5783 5787 5793 5794 5796 5799 5802 5805 5807 5809 5811 5816 5815 5816 5818 5819 5820 5822 5822 5823 5823 5823 5822 5821 5820 5819 5818 5817 5817 5816 5815 5815 5815 5816 5817 5817 5817 5817 5817 5817 5817 5816
5770 5773 5777 5781 5784 5787 5790 5793 5796 5799 5801 5803 5806 5809 5810 5811 5813 5814 5815 5816 5817 5817 5817 5817 5817 5816 5816 5815 5814 5813 5813 5812 5811 5811 5812 5812 5813 5814 5814 5814 5814 5814 5814 5814
5764 5768 5771 5775 5779 5781 5784 5787 5791 5793 5795 5798 5801 5803 5805 5806 5808 5809 5810 5811 5811 5811 5812 5812 5812 5812 5811 5810 5809 5809 5808 5808 5807 5807 5809 5809 5810 5811 5811 5811 5811 5811 5811 5810
5758 5762 5765 5769 5773 5775 5778 5782 5785 5787 5790 5793 5795 5798 5799 5801 5802 5803 5805 5805 5805 5805 5806 5806 5806 5806 5806 5805 5805 5804 5804 5803 5803 5804 5805 5806 5806 5807 5807 5807 5807 5807 5807 5807
5751 5755 5759 5763 5766 5769 5772 5776 5779 5782 5784 5787 5789 5792 5794 5795 5795 5797 5798 5799 5800 5800 5800 5800 5800 5800 5800 5800 5799 5799 5799 5799 5799 5799 5800 5802 5802 5803 5803 5803 5803 5804 5803 5803
5745 5749 5752 5756 5760 5762 5769 5771 5773 5775 5778 5780 5783 5785 5787 5789 5789 5789 5791 5793 5794 5794 5793 5793 5794 5794 5794 5794 5794 5794 5794 5795 5795 5795 5796 5797 5798 5798 5798 5799 5799 5799 5799 5799
5738 5742 5746 5750 5753 5757 5761 5764 5766 5768 5771 5774 5776 5778 5780 5782 5782 5784 5785 5786 5787 5787 5787 5787 5787 5787 5787 5788 5788 5789 5790 5790 5790 5791 5791 5792 5793 5793 5793 5794 5794 5794 5794 5794
5732 5736 5741 5744 5747 5750 5756 5758 5760 5763 5764 5768 5770 5772 5774 5775 5776 5778 5778 5779 5780 5781 5781 5781 5781 5781 5781 5782 5783 5783 5784 5785 5785 5785 5786 5786 5787 5788 5788 5788 5789 5789 5789 5789
5726 5730 5733 5737 5740 5744 5749 5752 5754 5757 5760 5762 5764 5766 5767 5768 5770 5771 5771 5772 5773 5774 5774 5775 5775 5775 5775 5775 5776 5777 5778 5779 5779 5780 5780 5781 5781 5782 5782 5783 5783 5783 5783 5783
5720 5724 5727 5731 5734 5740 5742 5745 5748 5751 5753 5755 5757 5759 5760 5762 5763 5763 5764 5765 5766 5767 5767 5768 5768 5768 5769 5769 5770 5771 5772 5773 5773 5774 5774 5775 5775 5775 5776 5776 5776 5777 5777 5777
5715 5719 5723 5726 5730 5733 5736 5739 5742 5744 5746 5748 5750 5752 5753 5754 5755 5756 5757 5759 5760 5760 5760 5760 5761 5762 5762 5763 5764 5765 5765 5766 5767 5767 5768 5769 5769 5769 5769 5770 5770 5770 5770 5770
5711 5714 5718 5720 5722 5726 5729 5733 5735 5737 5738 5740 5742 5744 5746 5747 5748 5749 5750 5752 5753 5753 5754 5754 5755 5755 5756 5757 5757 5758 5759 5759 5760 5761 5762 5762 5762 5763 5763 5764 5764 5764 5764 5765
5706 5709 5712 5715 5717 5720 5724 5726 5728 5730 5731 5732 5734 5736 5737 5739 5740 5741 5743 5744 5745 5745 5746 5747 5748 5749 5749 5750 5750 5751 5752 5752 5753 5754 5755 5756 5756 5756 5757 5758 5758 5758 5758 5758
5701 5704 5707 5709 5712 5715 5718 5720 5722 5723 5724 5725 5727 5728 5729 5731 5732 5733 5735 5736 5737 5737 5738 5739 5740 5741 5741 5742 5743 5743 5744 5746 5747 5747 5748 5749 5750 5750 5751 5751 5751 5751 5752 5752